Dewpoint
50 52 52 52 52 52 51 51 49 47 50 55 57 52 49 44 40 45 50 49 53 47 32 31 30 25 29 34 32 33 31 31 32 30 31 29 31 27 29 33 28 27 27 24 20 22 19 20 13 20 21 25 28 32 32 32 30 25 16 24 16 26 18 16 15 17 15 14 15 11 16 18 14 9 9 12 14 13 11 9 11 8 7 6 7 6 8
51 52 52 52 52 52 51 50 48 47 49 50 53 49 44 42 40 44 52 51 48 43 28 28 26 25 31 32 31 33 33 30 30 28 30 29 21 27 26 27 28 28 29 19 19 23 16 24 20 19 19 22 31 31 31 30 21 24 24 20 24 17 13 12 13 15 14 7 7 11 14 15 8 11 10 12 13 11 10 11 8 6 8 8 6 4 7
51 52 52 52 51 52 50 49 47 47 47 50 49 48 47 39 40 40 42 47 44 39 39 30 27 24 28 26 27 28 28 32 33 33 30 28 23 23 23 30 26 27 27 28 23 24 22 15 16 13 13 23 29 30 30 28 25 31 30 29 26 20 18 12 12 10 9 9 10 13 14 13 11 14 10 12 13 12 10 10 9 7 8 8 7 7 8
51 52 52 51 52 52 50 48 47 47 49 49 51 50 45 37 25 39 39 41 41 33 33 34 27 27 26 22 25 24 26 32 34 34 31 29 27 21 29 26 25 27 27 25 23 24 23 16 16 13 14 20 28 28 28 29 30 30 28 26 23 18 19 12 12 14 13 15 16 18 19 13 12 12 13 13 14 15 11 9 9 9 9 9 10 10 9
51 52 52 52 51 51 50 49 48 48 49 47 52 50 43 35 27 30 31 38 34 25 31 32 27 24 26 19 24 22 24 30 29 34 27 29 30 26 28 28 25 24 26 26 24 27 25 20 16 14 15 15 21 29 30 29 30 28 28 27 17 17 17 18 17 17 16 15 14 14 17 11 11 13 14 15 15 15 11 10 9 11 10 7 10 9 11
52 52 52 51 51 51 51 50 48 48 48 47 50 47 42 35 34 35 35 37 30 28 26 33 32 32 28 24 25 26 26 26 24 28 28 29 26 26 26 26 29 26 26 24 17 25 24 23 17 18 15 17 19 23 29 28 29 28 25 22 20 17 14 19 12 13 15 14 11 11 12 11 11 11 11 15 15 15 11 11 12 11 9 7 9 9 9
52 51 51 51 51 51 51 51 50 49 48 48 50 50 40 39 33 32 35 37 23 30 34 37 34 34 26 20 27 25 25 24 28 25 26 27 26 29 22 27 25 28 25 23 19 25 16 20 22 19 19 19 18 19 24 28 28 27 18 17 19 16 18 19 15 15 13 13 13 14 13 12 12 14 12 11 15 15 14 13 13 12 11 10 9 9 9
52 51 51 51 51 51 50 52 50 49 48 48 50 44 44 33 34 26 35 30 19 21 22 32 31 29 26 21 25 28 27 27 28 27 26 22 25 28 25 27 27 27 27 25 20 20 24 14 14 22 21 17 19 19 18 24 24 24 18 17 21 18 15 15 13 12 14 16 19 17 16 13 11 9 10 10 10 11 16 15 14 14 12 12 12 12 12
52 52 51 51 51 50 51 51 51 51 47 50 49 42 40 40 35 42 34 29 23 22 23 27 29 22 25 23 30 26 28 28 28 28 31 30 28 24 25 31 29 29 27 26 26 30 25 23 21 25 19 18 23 20 17 23 21 21 20 19 20 13 16 15 14 14 14 15 14 17 16 12 11 10 10 8 7 10 10 13 14 14 14 14 13 13 13
52 51 51 51 50 50 50 51 51 51 48 52 44 41 38 37 38 41 44 29 21 19 21 20 24 21 30 33 29 25 28 32 28 21 32 30 34 34 33 31 26 27 27 26 29 30 29 30 27 26 23 17 18 20 20 16 25 22 21 21 21 16 16 15 15 12 12 14 16 14 13 13 14 15 13 12 10 9 10 11 14 14 12 12 10 11 12
51 51 50 50 50 50 50 51 51 51 47 47 47 44 39 45 43 36 42 32 22 22 23 23 27 30 30 34 31 29 30 29 30 24 24 30 33 31 31 29 24 22 24 29 32 30 28 25 24 24 23 21 19 19 22 26 22 25 24 17 18 16 14 15 12 10 14 14 13 13 13 13 17 14 19 17 11 10 9 8 9 11 11 11 11 11 11
51 51 51 51 50 51 50 51 51 51 48 52 49 47 46 42 47 40 41 26 24 21 21 21 26 32 33 31 32 29 28 28 31 31 27 32 31 29 30 26 22 19 29 28 27 29 30 30 28 27 28 26 26 26 25 25 20 23 23 20 18 15 14 15 11 10 12 14 14 15 10 15 16 11 14 10 9 9 10 10 10 10 10 9 10 10 11
50 50 50 50 51 51 50 50 51 51 49 49 52 46 41 41 48 43 40 33 24 20 18 22 24 28 28 30 32 29 29 29 30 31 32 31 28 30 31 31 28 31 29 28 28 28 28 23 25 26 27 27 27 28 27 26 25 23 19 20 19 18 15 15 13 14 15 13 13 7 11 16 18 8 9 15 9 7 7 9 9 10 9 10 10 11 12
50 50 50 50 50 51 50 50 51 51 48 47 48 46 38 41 45 42 41 29 23 21 23 24 21 21 26 31 29 29 28 26 19 27 30 32 31 33 34 33 33 30 30 28 28 24 21 14 17 18 18 20 21 17 26 27 26 25 24 23 21 17 14 14 13 13 10 12 11 12 13 12 14 11 9 8 7 6 8 8 12 12 11 11 11 12 12
49 49 49 50 50 50 50 51 51 50 47 44 45 43 43 43 44 46 40 39 21 24 22 21 23 24 29 29 28 21 22 22 22 26 29 31 31 32 32 31 32 32 29 26 21 18 17 17 14 16 17 14 12 14 24 22 22 22 22 21 19 16 13 12 11 11 15 11 10 10 11 9 17 13 17 11 12 13 14 9 12 12 13 13 12 12 13
49 49 49 50 50 50 50 50 49 47 44 44 47 41 38 39 38 45 46 39 25 20 28 36 34 31 29 28 29 26 24 22 20 24 25 30 30 29 30 30 30 29 27 24 17 19 19 13 12 12 12 11 13 10 12 18 15 15 16 20 21 19 14 12 13 13 13 10 7 8 6 11 13 12 14 15 11 15 15 11 11 13 12 13 13 13 12
49 49 49 50 50 49 48 47 46 45 45 45 45 43 40 39 41 47 44 42 34 26 31 32 35 35 27 21 23 17 24 21 18 19 21 25 30 30 29 29 28 28 27 20 16 17 16 14 13 14 16 18 9 11 14 11 12 13 14 18 19 14 15 13 12 8 12 10 8 9 10 14 16 11 12 10 13 14 10 11 12 11 11 13 12 11 11
48 48 49 49 49 48 47 46 45 45 45 45 48 41 39 41 39 40 45 41 28 28 31 31 36 28 25 28 21 28 27 23 24 21 23 29 29 29 29 29 27 30 31 25 17 17 14 14 14 14 16 18 16 14 9 13 6 13 9 10 12 12 12 14 11 13 15 16 12 13 14 17 18 10 9 11 15 13 10 11 17 12 11 12 12 11 11
47 47 47 47 47 47 45 45 45 45 44 45 42 41 38 40 41 40 48 36 31 24 31 29 31 31 29 29 35 35 33 33 28 20 23 21 24 30 29 28 29 24 27 22 14 16 16 13 9 12 16 14 13 11 8 7 9 7 8 7 13 15 13 13 12 12 12 14 14 13 15 16 10 11 10 14 15 11 13 15 14 12 10 13 13 12 13
48 48 48 48 46 45 46 47 46 45 44 44 45 40 39 40 41 40 46 28 30 29 30 32 33 31 32 34 29 24 27 28 26 25 21 22 28 30 26 23 26 24 19 14 16 15 14 16 16 10 13 17 11 15 10 10 9 7 7 16 12 19 12 15 13 13 13 10 9 11 9 14 12 13 11 13 12 15 16 14 15 15 14 13 13 13 12
47 47 46 46 48 48 46 45 44 44 44 44 42 39 36 36 40 41 41 40 29 28 29 32 31 31 32 31 30 30 32 33 31 22 26 25 28 27 18 19 25 19 19 19 19 18 14 16 15 12 13 10 10 9 14 11 15 12 11 16 15 18 13 15 18 19 14 14 8 11 18 15 13 12 13 13 12 13 14 15 12 15 16 13 11 11 12
48 48 47 46 45 46 45 45 46 45 42 43 45 39 30 37 37 35 34 34 32 31 30 31 31 30 30 30 30 31 31 31 32 31 30 24 27 25 22 21 22 20 18 16 18 15 17 17 16 14 15 14 9 13 11 10 13 15 16 11 11 16 17 19 16 17 15 13 17 17 17 14 13 12 13 14 15 16 15 15 14 13 14 15 12 12 11
47 47 48 47 46 44 45 46 45 43 42 45 44 42 31 33 39 40 40 27 30 31 31 31 32 32 33 33 32 32 30 32 32 32 31 31 23 25 20 22 23 28 24 20 22 22 20 20 18 19 17 18 19 17 13 16 14 16 15 11 17 14 15 10 11 17 15 13 13 16 14 14 16 14 14 14 14 15 16 16 15 15 15 14 12 11 11
45 45 45 46 47 46 47 47 46 45 44 42 45 40 37 39 38 38 33 30 29 27 30 31 32 28 30 31 31 32 31 32 31 32 32 31 30 24 26 27 27 26 25 27 25 24 20 19 19 15 14 21 15 15 12 15 18 17 14 18 16 11 10 10 13 13 11 10 14 13 13 14 15 15 16 16 16 15 16 16 16 16 16 15 13 12 12
45 44 44 44 44 44 45 46 46 45 43 43 39 38 37 37 38 38 40 24 25 28 25 26 27 31 32 32 30 31 32 30 32 32 31 31 30 31 29 30 30 29 24 24 16 22 19 18 17 16 12 21 18 16 14 15 18 13 14 19 15 18 11 9 10 10 8 8 10 11 12 12 13 13 14 14 15 17 17 17 16 16 16 14 13 13 12
45 45 45 44 44 44 43 43 43 43 43 42 43 43 43 41 40 39 41 39 32 25 24 24 30 32 32 32 31 32 33 32 31 32 33 32 33 31 30 31 30 30 26 22 21 22 22 19 18 18 17 21 17 15 15 12 11 10 11 14 15 13 15 14 10 8 9 11 11 11 12 13 13 14 15 16 16 17 17 17 17 15 14 13 13 13 12
44 43 43 44 44 44 44 44 44 43 42 42 42 40 38 39 40 40 42 43 30 23 27 25 26 30 31 31 32 33 32 32 32 32 32 32 33 31 31 31 28 25 23 21 20 20 21 19 17 20 20 20 17 18 16 16 14 15 17 13 14 13 14 11 11 14 14 13 12 14 15 15 13 15 16 16 18 18 17 17 15 14 13 13 12 13 13
45 45 45 43 42 43 43 42 42 42 42 41 39 38 40 36 38 38 36 39 39 27 26 24 22 27 31 32 32 30 31 31 31 31 31 31 31 30 31 30 29 24 23 22 20 19 19 18 22 20 18 17 16 19 17 16 16 16 15 12 13 11 12 13 16 17 14 13 14 17 18 16 15 15 16 17 19 17 14 13 13 13 13 12 12 12 12
45 45 45 45 45 41 40 43 43 41 40 40 45 42 42 41 41 39 40 40 40 28 25 24 26 26 26 31 31 30 30 30 30 30 30 31 31 31 30 29 28 24 23 22 23 22 22 24 20 20 19 17 16 17 18 15 17 15 13 15 14 13 14 14 13 14 14 15 15 15 15 13 14 15 15 15 16 15 13 12 12 12 12 12 12 13 12
44 44 44 45 44 44 44 43 45 43 41 41 45 36 30 35 40 38 38 39 39 35 24 24 23 23 28 32 32 31 30 31 30 30 30 29 30 31 30 28 26 25 23 23 24 23 22 22 19 17 17 20 17 21 14 16 15 14 14 15 16 15 15 16 16 14 12 14 15 15 16 16 17 16 16 16 16 15 13 12 12 12 12 12 12 13 13
44 44 44 44 45 45 44 44 44 42 39 42 40 27 26 21 37 41 36 40 39 37 24 25 23 23 23 27 28 30 31 29 29 30 30 29 27 27 27 26 26 25 24 25 23 23 21 21 21 20 19 18 21 20 19 16 17 19 16 16 16 17 17 17 18 18 18 17 17 18 17 17 18 17 15 15 14 14 14 14 15 19 15 14 13 13 13
44 44 43 44 44 45 45 45 44 41 42 42 40 34 31 36 41 40 38 37 39 37 23 22 20 20 20 25 26 29 30 29 29 29 26 28 24 26 24 27 25 25 28 26 24 23 23 21 20 20 20 24 21 19 18 17 16 17 15 15 18 19 20 20 19 19 19 20 18 17 15 15 15 14 14 14 14 13 12 12 12 12 15 15 15 14 14
45 45 44 44 44 43 43 42 39 38 29 34 40 40 40 41 39 40 38 40 38 25 26 23 16 16 17 22 21 27 28 26 21 19 22 23 22 22 23 24 23 24 32 25 22 21 20 19 20 20 21 21 20 19 16 17 16 16 16 18 18 19 19 19 19 19 18 17 15 14 13 13 14 14 15 14 14 14 14 14 14 13 14 14 15 14 13
46 45 45 45 45 45 43 41 39 38 40 43 35 39 39 41 38 38 40 40 26 24 23 21 14 15 19 21 20 26 27 21 21 18 21 19 18 17 20 18 19 20 25 23 21 17 18 19 20 20 18 19 19 17 15 17 17 17 18 18 19 18 17 15 15 15 15 16 16 16 15 15 15 15 16 16 16 16 17 16 15 15 16 15 14 14 14
46 46 47 46 44 45 46 41 42 42 39 38 37 39 39 39 40 38 41 36 25 18 22 21 22 21 19 22 20 23 24 20 22 18 19 21 19 20 17 20 18 18 22 21 17 17 19 20 19 19 19 19 15 14 17 17 17 17 17 16 15 15 15 14 14 16 16 16 18 18 19 19 18 18 18 18 18 19 18 18 18 17 15 15 15 14 13
47 47 44 44 45 40 42 45 39 42 32 32 36 39 39 42 40 40 39 40 33 17 21 18 20 19 18 17 20 21 24 22 19 17 17 19 19 15 17 18 19 21 20 17 20 18 17 17 19 17 19 14 15 17 16 18 17 16 16 15 15 16 15 15 15 16 17 19 20 21 20 20 19 19 19 20 20 20 19 19 19 17 16 16 16 16 15
45 44 44 40 39 41 33 28 35 38 32 40 40 38 38 40 40 40 40 34 27 27 23 22 22 21 10 20 16 22 21 23 18 20 20 20 21 20 18 18 18 24 24 20 19 18 16 16 16 14 13 15 18 18 18 19 18 17 16 16 18 17 17 17 18 18 18 19 20 19 19 19 20 20 20 20 20 20 20 20 20 19 19 19 19 18 18
44 42 42 41 36 25 22 27 33 39 38 38 38 32 29 28 21 23 24 21 20 28 22 24 24 21 17 18 19 23 21 22 19 19 19 19 20 19 17 17 19 21 16 17 16 14 15 14 13 15 17 18 17 17 16 17 18 18 18 18 17 17 18 18 18 19 19 19 18 19 19 20 20 20 20 21 21 21 21 21 21 21 21 21 20 21 20
37 40 40 35 28 18 20 30 40 37 40 37 39 22 21 22 21 24 20 22 21 23 21 25 21 18 20 21 22 25 21 20 22 18 19 23 18 16 17 14 18 16 14 13 14 14 12 13 13 12 13 16 16 15 17 18 18 18 18 18 18 19 20 20 20 19 19 19 19 19 19 19 20 21 22 23 23 23 23 23 23 23 23 23 23 22 22
41 36 25 28 21 28 38 37 39 34 31 23 21 26 16 22 24 18 19 21 21 21 22 24 19 19 15 14 17 20 24 20 19 22 20 20 22 17 16 16 14 11 9 11 14 15 12 10 10 10 14 21 20 17 15 17 17 19 20 20 20 21 21 21 21 21 21 22 22 22 23 24 25 24 24 24 24 24 24 24 24 24 24 24 24 23 22
37 32 30 24 30 39 35 34 35 30 23 22 26 21 23 20 18 17 20 19 18 19 20 23 20 21 19 17 14 18 22 20 19 20 19 17 22 21 16 10 12 9 7 8 14 12 10 8 10 12 19 17 14 15 18 19 19 20 20 20 21 21 22 22 22 22 23 23 24 25 26 28 28 27 27 26 26 26 25 25 25 25 25 25 24 23 23
39 34 34 37 36 38 34 30 23 23 23 20 15 12 16 17 20 21 19 16 19 19 22 21 18 22 20 17 19 18 20 18 20 18 17 15 21 17 12 10 8 6 5 11 12 12 11 7 11 15 23 18 15 18 20 19 21 21 21 21 22 22 22 23 23 23 24 25 26 26 27 28 28 28 28 28 28 27 27 26 26 26 25 25 24 24 23
40 36 34 35 27 24 21 22 25 23 14 15 12 11 17 13 15 16 17 21 19 20 21 19 22 24 23 20 20 20 21 26 23 17 16 12 17 10 8 7 5 5 9 12 11 8 7 7 11 18 19 14 16 19 19 20 21 22 22 22 22 23 23 24 24 25 26 27 28 28 29 29 29 29 29 28 27 26 26 26 25 26 26 25 24 23 23
37 31 29 28 24 23 22 14 20 19 14 17 14 8 14 14 22 18 17 22 22 21 20 20 21 18 20 20 20 21 22 25 22 15 12 12 13 6 6 5 7 12 13 11 7 7 12 14 18 20 15 15 20 19 19 21 22 22 22 22 23 23 24 25 25 26 26 27 28 29 29 29 28 29 29 28 27 26 26 26 26 26 25 25 24 24 23
23 25 28 23 17 23 16 8 18 13 9 12 23 21 18 14 21 20 22 23 21 24 19 18 19 17 17 18 19 19 21 17 20 17 11 10 8 8 7 10 9 10 9 7 9 10 10 12 19 19 16 16 18 19 21 22 22 22 22 23 23 23 24 25 25 26 26 27 27 29 28 29 29 28 29 29 28 28 26 26 27 26 26 25 24 24 23
25 23 22 12 8 14 15 9 14 13 22 26 23 24 24 25 23 23 22 18 22 20 22 20 17 18 18 17 18 17 14 14 14 9 10 8 8 7 12 12 10 7 5 7 4 9 14 23 16 16 17 19 19 21 22 23 23 23 24 23 23 24 25 26 26 27 26 27 28 28 28 28 28 28 28 28 28 28 28 28 27 26 26 25 24 23 23
23 24 23 17 11 16 20 15 17 23 24 24 25 25 24 23 21 21 20 18 22 21 17 18 17 18 18 18 15 15 13 13 10 10 11 7 6 9 10 9 4 5 5 5 9 12 18 17 17 18 20 21 22 24 24 24 24 24 23 24 24 25 25 26 26 26 26 28 28 28 28 27 28 28 28 28 28 28 27 27 27 26 25 24 24 23 22
16 22 21 10 9 18 17 22 21 23 20 22 23 17 18 18 21 24 18 18 19 17 18 17 17 18 17 18 18 17 13 9 9 10 10 8 9 7 5 3 4 8 9 9 14 17 17 17 19 21 23 24 24 25 24 24 24 24 25 25 26 26 26 26 26 26 28 28 28 28 28 28 29 28 28 28 27 28 28 28 27 26 26 24 23 22 21
25 17 15 14 18 19 22 22 23 23 26 20 17 18 19 21 23 23 18 17 19 18 18 18 19 17 14 13 11 10 8 11 9 8 8 7 5 4 4 5 5 7 14 16 19 17 17 19 24 26 26 26 26 25 24 23 24 25 26 26 27 26 27 26 27 27 28 29 29 29 29 29 29 28 28 28 28 27 27 28 27 26 25 24 22 22 21
21 20 23 24 21 25 20 21 23 25 26 24 23 24 21 22 23 21 18 18 17 18 18 20 20 16 13 11 9 6 10 11 10 8 7 6 7 7 7 5 10 12 18 19 19 19 20 22 24 24 25 26 27 25 24 24 26 28 28 28 28 28 27 27 27 27 28 28 29 29 28 29 28 28 28 27 27 28 28 27 27 26 25 25 24 23 22
22 20 20 22 26 24 26 21 20 21 24 25 24 23 21 22 20 21 19 18 17 18 19 18 14 12 10 8 6 9 8 11 10 9 11 10 11 8 9 9 15 19 18 19 20 20 21 23 22 23 25 26 25 25 26 28 28 29 29 29 29 29 28 28 28 28 28 29 29 26 28 28 29 28 28 29 28 28 27 27 27 27 26 25 24 23 22
20 21 21 22 21 23 24 27 25 24 24 24 24 21 19 21 18 18 17 20 19 20 19 16 13 12 7 10 12 12 8 11 9 7 10 13 10 11 11 16 19 20 21 19 20 20 21 23 24 26 26 26 26 27 28 28 28 28 27 28 29 29 28 29 28 29 29 29 29 28 29 28 29 29 29 28 28 28 27 27 27 27 27 27 26 25 24